Location: São Paulo
(23.5507°S, 46.6334°W)
Time: 06:37:05
(UTC-03:00)

Transit 2A - Pass Details

Date: 22 February 2026
Orbit: 590 x 954 km, 66.7° (Epoch: 10 March)

Event Time Altitude Azimuth Distance (km) Brightness Sun altitude
Rises 10:49:18 0° 238° (WSW) 3,162 8.9 64.5°
Reaches altitude 10° 10:54:16 10° 280° (W) 2,346 8.5 65.5°
Maximum altitude 10:54:52 10° 287° (WNW) 2,346 8.5 65.6°
Drops below altitude 10° 10:55:27 10° 293° (WNW) 2,371 8.5 65.7°
Sets 11:00:48 0° 334° (NNW) 3,409 9.4 66.8°
